Location: Fxbg
(38.3018°N, 77.4708°W)
Time: 18:30:35
(UTC-04:00)

ISS - Visible Passes

Search period start: 23 May 2017 00:00
Search period end: 02 June 2017 00:00
Orbit: 402 x 409 km, 51.6° (Epoch: 24 May)

Date Brightness Start Highest point End Pass type
(mag) Time Alt. Az. Time Alt. Az. Time Alt. Az.
23 May -0.3 03:04:55 10° N 03:05:53 11° NNE 03:06:51 10° NNE visible
23 May -2.3 04:40:00 10° NW 04:43:06 39° NNE 04:46:12 10° ESE visible
23 May -2.8 21:19:08 10° SSW 21:21:56 26° SE 21:24:46 10° ENE visible
23 May -1.9 22:55:23 10° W 22:58:22 31° NNW 23:01:21 10° NNE visible
24 May -0.1 00:35:40 10° NNW 00:35:41 10° NNW 00:35:43 10° NNW visible
24 May -1.3 03:48:12 10° NNW 03:50:55 24° NNE 03:53:38 10° E visible
24 May -3.1 22:02:58 10° WSW 22:06:14 56° NW 22:09:28 10° NE visible
24 May -0.3 23:41:43 10° NW 23:43:18 13° NNW 23:44:52 10° N visible
25 May -0.7 02:56:29 10° NNW 02:58:39 16° NNE 03:00:49 10° ENE visible
25 May -4.0 04:32:14 10° NW 04:35:31 83° SW 04:38:47 10° SE visible
25 May -3.9 21:10:53 10° SW 21:14:09 73° SE 21:17:27 10° NE visible
25 May -0.7 22:48:39 10° WNW 22:50:57 17° NNW 22:53:16 10° NNE visible
26 May -0.3 02:04:55 10° N 02:06:18 12° NNE 02:07:41 10° NE visible
26 May -2.9 03:40:14 10° NW 03:43:25 49° NE 03:46:36 10° ESE visible
26 May -2.1 05:17:39 10° W 05:19:37 15° SW 05:21:35 10° SSW visible
26 May -1.4 21:55:51 10° W 21:58:41 26° NNW 22:01:31 10° NNE visible
27 May -1.7 02:48:21 10° NNW 02:53:54 11° E 02:54:08 10° E visible
27 May -3.1 04:27:40 29° SW 04:27:43 29° SW 04:30:36 10° SSE visible
27 May -2.4 21:03:18 10° WSW 21:06:28 44° NW 21:09:39 10° NE visible
27 May -0.4 22:42:25 10° NW 22:43:39 12° NNW 22:44:52 10° N visible
28 May -0.7 01:56:34 10° NNW 01:57:28 14° N 01:57:28 14° N visible
28 May -0.6 21:49:10 10° WNW 21:51:14 15° NNW 21:53:18 10° NNE visible
29 May -0.5 01:04:53 10° NNW 01:06:13 13° NNE 01:06:13 13° NNE visible
29 May -1.0 20:56:14 10° W 20:58:54 22° NNW 21:01:33 10° NNE visible
30 May -0.4 00:13:32 10° N 00:14:09 10° NNE 00:14:47 10° NNE visible
30 May -0.4 21:43:06 10° NNW 21:43:53 11° NNW 21:44:39 10° N visible
31 May -0.6 00:56:32 10° NNW 00:57:14 14° NNW 00:57:14 14° NNW visible
01 Jun -0.8 00:04:46 10° NNW 00:06:36 15° NNE 00:06:36 15° NNE visible
01 Jun -0.7 23:13:11 10° N 23:14:19 11° NNE 23:15:27 10° NE visible
